Flag for Germany Weather past 2 weeks in Neumarkt in der Oberpfalz, Bavaria, Germany

Now
73 °F

Scattered clouds.


Feels Like: 76 °F
Forecast: 56 / 71 °F
Wind: 6 mph from North

Location: Hohenfels

Current Time: Sep 19, 2014 at 2:18:31 PM

Latest Report: Sep 19, 2014 at 1:58 PM


Visibility: N/A

Pressure: 29.94 "Hg

Humidity: 61%

Dew point: 59 °F

Location of Neumarkt in der OberpfalzLocation

Historic Weather in Neumarkt in der Oberpfalz — Graph

°F

Neumarkt in der Oberpfalz temperature yesterday

Maximum temperature yesterday: 72 °F (at 2:58 PM)
Minimum temperature yesterday: 46 °F (at 5:58 AM)
Average temperature yesterday: 58 °F

Past Weeks' High & Low Weather Summary

 TemperatureHumidityPressure
High75 °F (Sep 6, 2:58 PM)100% (Sep 5, 12:58 AM)30.15 "Hg (Sep 5, 12:58 AM)
Low46 °F (Sep 17, 6:58 AM)50% (Sep 9, 4:58 PM)29.88 "Hg (Sep 6, 4:58 PM)
Average60 °F88%30.01 "Hg
* Reported Sep 4 12:58 PM — Sep 19 12:58 PM, Neumarkt in der Oberpfalz, Weather by CustomWeather, © 2014

Note: Actual official high and low records may vary slightly from our data, if they occured in-between our weather recording intervals... More about our weather records

Advertising

Neumarkt in der Oberpfalz weather history for previous 24 hours

 ConditionsComfort  
Time TempWeatherWind HumidityBarometerVisibility
12:58 PM
Sep 19
72 °FPassing clouds.3 mph65%29.96 "HgN/A
11:58 AM70 °FPassing clouds.3 mph69%29.96 "HgN/A
10:58 AM66 °FScattered clouds.6 mph78%29.98 "HgN/A
9:58 AM63 °FPartly sunny.5 mph83%29.99 "HgN/A
8:58 AM59 °FSunny.1 mph88%30.00 "HgN/A
7:58 AM52 °FFog.3 mph100%29.99 "Hg5 mi
6:58 AM52 °FFog.1 mph100%29.97 "Hg4 mi
5:58 AM52 °FFog.No wind100%29.95 "Hg4 mi
4:58 AM54 °FFog.No wind100%29.95 "Hg4 mi
3:58 AM55 °FOvercast.No wind100%29.94 "HgN/A
2:58 AM55 °FPassing clouds.No wind100%29.94 "HgN/A
1:58 AM57 °FOvercast.No wind94%29.95 "HgN/A
12:58 AM57 °FOvercast.2 mph94%29.96 "HgN/A
11:58 PM
Sep 18
57 °FPassing clouds.No wind94%29.96 "HgN/A
10:58 PM57 °FClear.2 mph94%29.98 "HgN/A
9:58 PM57 °FPassing clouds.3 mph94%29.97 "HgN/A
8:58 PM59 °FClear.3 mph94%29.96 "HgN/A
7:58 PM61 °FOvercast.No wind88%29.96 "HgN/A
4:58 PM72 °FSunny.6 mph57%29.92 "HgN/A
3:58 PM72 °FSunny.5 mph61%29.92 "HgN/A
2:58 PM72 °FSunny.7 mph57%29.93 "HgN/A
Weather by CustomWeather, © 2014

See weather overviewHow to use our weather pages